Regional Weather Roundup
Issued by NWS

Home | Current Version | Previous Version | Graphics & Text | Print | Product List | Glossary Off
Versions: 1 2 3 4 5 6 7 8 9 10 11 12 13 14 15 16 17 18 19 20 21 22 23 24 25 26 27 28 29 30 31 32 33 34 35 36 37 38 39 40 41 42 43 44 45 46 47 48 49 50

000
ASUS44 KMEG 282210
RWRTN
TENNESSEE HOURLY STATE WEATHER ROUNDUP
NATIONAL WEATHER SERVICE MEMPHIS TN
500 PM CDT SUN AUG 28 2016

TNZ002-004-019-021-049-052-054-088>092-282300-
WEST TENNESSEE

CITY           SKY/WX    TMP DP  RH WIND       PRES   REMARKS
MEMPHIS INTL   MOSUNNY   96  67  38 E7        30.01F HX 100
NWS MEMPHIS      N/A     93 N/A N/A MISG        N/A
JACKSON        SUNNY     91  73  55 SE5       30.04F HX  99
DYERSBURG      SUNNY     91  73  55 MISG      30.03F HX 100
UNION CITY     SUNNY     91  72  52 SE8       30.04F HX  98
PARIS          SUNNY     86  73  66 CALM      30.07F HX  93
LEXINGTON      SUNNY     91  70  49 NE3       30.05F HX  97
$$

TNZ008-025-027-028-033-062-065-066-282300-
NORTH MIDDLE TENNESSEE

CITY           SKY/WX    TMP DP  RH WIND       PRES   REMARKS
NASHVILLE      CLOUDY    90  67  46 SE10G17   30.09S HX  93
CLARKSVILLE    MOSUNNY   89  73  59 N7        30.08S HX  97
SMYRNA         TSTM      77  72  83 SW12      30.10R
COOKEVILLE     SUNNY     77  73  88 CALM      30.12R
CROSSVILLE     CLOUDY    81  71  71 NW5       30.17R
$$

TNZ061-075-076-078-094-096-097-282300-
SOUTH MIDDLE TENNESSEE

CITY           SKY/WX    TMP DP  RH WIND       PRES   REMARKS
TULLAHOMA        N/A     88  68  51 NE7       30.12S HX  91
WINCHESTER     SUNNY     88  72  58 E9        30.11R HX  94
MCMINNVILLE    SUNNY     77  73  88 E3        30.13R
COLUMBIA       PTSUNNY   93  72  49 NE7       30.07R HX 100
SHELBYVILLE    SUNNY     82  75  78 N8        30.10F
$$

TNZ017-018-042-046-047-282300-
NORTHEAST TENNESSEE

CITY           SKY/WX    TMP DP  RH WIND       PRES   REMARKS
TRI CITIES     PTSUNNY   87  70  56 CALM      30.13F HX  92
$$

TNZ012-013-036-069-073-074-282300-
CENTRAL EAST TENNESSEE

CITY           SKY/WX    TMP DP  RH WIND       PRES   REMARKS
KNOXVILLE      MOSUNNY   92  68  45 E6        30.08R HX  96
OAK RIDGE      PTSUNNY   83  68  60 E10G23    30.14R
GATLINBURG       N/A     82  73  74 VRB6      30.10R
$$

TNZ083-085-099-282300-
SOUTHEAST TENNESSEE

CITY           SKY/WX    TMP DP  RH WIND       PRES   REMARKS
CHATTANOOGA    CLOUDY    77  70  79 N5        30.11R
$$

SKY/WX REPORTED AS FAIR MEANS FEW OR NO CLOUDS BELOW
12 THOUSAND FEET.





USA.gov is the U.S. government's official web portal to all federal, state and local government web resources and services.